EW9675 Weather Reports


Display with metric or nautical units.
time (UTC)temp
F
wind
direction
speed
MPH
gust
MPH
rain 1hr
in
rain 24hr
in
rain mn
in
humidity
%
barometer
mb
20260507164004 57 202 7.0 18.0 0.00 0.00 0.00 79 1028.7
20260507163504 57 203 5.0 18.0 0.00 0.00 0.00 78 1028.7
20260507163025 57 203 3.0 18.0 0.00 0.00 0.00 77 1028.8
20260507162504 57 204 3.0 10.0 0.00 0.00 0.00 77 1028.7
20260507162004 57 208 3.0 8.0 0.00 0.00 0.00 77 1028.7
20260507161504 57 205 3.0 8.0 0.00 0.00 0.00 77 1028.7
20260507161004 57 200 3.0 6.0 0.00 0.00 0.00 77 1028.7
20260507160504 57 195 4.0 8.0 0.00 0.00 0.00 77 1028.7
20260507160004 57 196 5.0 9.0 0.00 0.00 0.00 77 1028.7
20260507155525 57 197 5.0 10.0 0.00 0.00 0.00 76 1028.8
20260507155004 57 198 4.0 11.0 0.00 0.00 0.00 76 1028.9
20260507154504 56 193 1.0 11.0 0.00 0.00 0.00 76 1028.9
20260507154025 56 185 0.0 11.0 0.00 0.00 0.00 76 1029.0
20260507153504 56 0 0.0 0.0 0.00 0.00 0.00 77 1028.9
20260507153025 56 0 0.0 0.0 0.00 0.00 0.00 77 1028.9
20260507152504 56 0 0.0 0.0 0.00 0.00 0.00 77 1028.9
20260507152025 56 0 0.0 0.0 0.00 0.00 0.00 77 1029.0
20260507151504 56 0 0.0 0.0 0.00 0.00 0.00 77 1028.9
20260507151004 56 0 0.0 0.0 0.00 0.00 0.00 77 1028.9
20260507150504 56 0 0.0 0.0 0.00 0.00 0.00 77 1028.9
20260507150004 56 0 0.0 0.0 0.00 0.00 0.00 77 1029.0
20260507145504 56 0 0.0 0.0 0.00 0.00 0.00 77 1029.0
20260507145004 56 0 0.0 0.0 0.00 0.00 0.00 77 1029.0
20260507144504 56 0 0.0 0.0 0.00 0.00 0.00 77 1029.0
20260507144025 56 0 0.0 0.0 0.00 0.00 0.00 77 1029.1
20260507143504 56 0 0.0 0.0 0.00 0.00 0.00 78 1029.1
20260507143026 56 0 0.0 0.0 0.00 0.00 0.00 78 1029.0
20260507142525 56 196 1.0 5.0 0.00 0.00 0.00 78 1029.0
20260507142004 56 199 2.0 5.0 0.00 0.00 0.00 78 1028.9
20260507141504 56 202 3.0 8.0 0.00 0.00 0.00 78 1029.0
20260507141025 56 201 3.0 8.0 0.00 0.00 0.00 78 1029.0
20260507140525 56 199 2.0 8.0 0.00 0.00 0.00 78 1029.0
20260507140004 56 203 1.0 8.0 0.00 0.00 0.00 78 1029.0
20260507135504 56 211 1.0 6.0 0.00 0.00 0.00 78 1029.0
20260507135004 55 210 1.0 5.0 0.00 0.00 0.00 79 1029.1
20260507134525 55 210 0.0 5.0 0.00 0.00 0.00 78 1029.1
20260507134004 55 0 0.0 0.0 0.00 0.00 0.00 79 1029.1
20260507133504 55 195 0.0 5.0 0.00 0.00 0.00 79 1029.1
20260507133025 55 195 0.0 5.0 0.00 0.00 0.00 79 1029.2
20260507132504 55 0 0.0 0.0 0.00 0.00 0.00 79 1029.2
20260507132004 55 0 0.0 0.0 0.00 0.00 0.00 79 1029.2
20260507131504 55 203 1.0 5.0 0.00 0.00 0.00 80 1029.2
20260507131004 55 211 1.0 5.0 0.00 0.00 0.00 80 1029.2
20260507130525 55 211 2.0 6.0 0.00 0.00 0.00 80 1029.1
20260507130004 55 207 2.0 6.0 0.00 0.00 0.00 80 1029.2
20260507125525 55 202 3.0 6.0 0.00 0.00 0.00 81 1029.2
20260507125004 55 192 3.0 9.0 0.00 0.00 0.00 81 1029.4
20260507124504 55 187 3.0 9.0 0.00 0.00 0.00 81 1029.4
20260507124004 55 182 3.0 8.0 0.00 0.00 0.00 81 1029.4
20260507123504 55 180 4.0 10.0 0.00 0.00 0.00 81 1029.5
20260507123004 55 178 4.0 10.0 0.00 0.00 0.00 81 1029.6
20260507122504 55 179 5.0 9.0 0.00 0.00 0.00 80 1029.6
20260507122004 55 186 6.0 13.0 0.00 0.00 0.00 80 1029.6
20260507121525 56 193 7.0 13.0 0.00 0.00 0.00 79 1029.6
20260507121004 56 208 8.0 13.0 0.00 0.00 0.00 78 1029.6
20260507120504 56 216 8.0 15.0 0.00 0.00 0.00 75 1029.7
20260507120025 57 218 7.0 18.0 0.00 0.00 0.00 73 1029.6
20260507115504 57 212 5.0 18.0 0.00 0.00 0.00 71 1029.5
20260507115004 56 204 4.0 9.0 0.00 0.00 0.00 70 1029.4
20260507114504 56 212 3.0 8.0 0.00 0.00 0.00 69 1029.4
20260507114025 56 221 2.0 8.0 0.00 0.00 0.00 69 1029.3
20260507113503 56 217 2.0 6.0 0.00 0.00 0.00 70 1029.3
20260507113024 56 201 2.0 6.0 0.00 0.00 0.00 69 1029.4
20260507112503 56 201 2.0 6.0 0.00 0.00 0.00 69 1029.4
20260507112004 56 205 3.0 5.0 0.00 0.00 0.00 69 1029.4
20260507111504 56 210 4.0 6.0 0.00 0.00 0.00 69 1029.3
20260507111003 56 210 4.0 9.0 0.00 0.00 0.00 68 1029.4
20260507110525 56 208 3.0 9.0 0.00 0.00 0.00 68 1029.4
20260507110004 56 206 3.0 9.0 0.00 0.00 0.00 68 1029.4
20260507105503 56 206 5.0 9.0 0.00 0.00 0.00 69 1029.4
20260507105004 56 201 5.0 13.0 0.00 0.00 0.00 69 1029.4
20260507104504 56 195 5.0 13.0 0.00 0.00 0.00 69 1029.5
20260507104025 56 194 4.0 10.0 0.00 0.00 0.00 70 1029.6
20260507103504 56 190 3.0 9.0 0.00 0.00 0.00 71 1029.6
20260507103004 56 184 2.0 9.0 0.00 0.00 0.00 71 1029.6
20260507102503 55 181 1.0 8.0 0.00 0.00 0.00 71 1029.5
20260507102004 55 184 1.0 6.0 0.00 0.00 0.00 71 1029.5
20260507101503 55 184 2.0 5.0 0.00 0.00 0.00 71 1029.5
20260507101003 55 190 3.0 9.0 0.00 0.00 0.00 71 1029.5
20260507100525 55 190 3.0 9.0 0.00 0.00 0.00 71 1029.5
20260507100004 55 186 3.0 6.0 0.00 0.00 0.00 70 1029.5
20260507095504 55 189 3.0 8.0 0.00 0.00 0.00 70 1029.5
20260507095003 56 192 3.0 8.0 0.00 0.00 0.00 70 1029.4
20260507094504 56 191 3.0 6.0 0.00 0.00 0.00 70 1029.3
20260507094004 56 187 3.0 6.0 0.00 0.00 0.00 69 1029.4
20260507093504 56 186 3.0 9.0 0.00 0.00 0.00 69 1029.3
20260507093003 56 188 4.0 9.0 0.00 0.00 0.00 70 1029.3
20260507092504 56 190 4.0 9.0 0.00 0.00 0.00 70 1029.3
20260507092004 56 191 4.0 8.0 0.00 0.00 0.00 70 1029.2
20260507091504 56 189 4.0 8.0 0.00 0.00 0.00 70 1029.2
20260507091004 56 191 4.0 10.0 0.00 0.00 0.00 70 1029.2
20260507090504 56 191 5.0 10.0 0.00 0.00 0.00 70 1029.1
20260507090005 55 187 5.0 9.0 0.00 0.00 0.00 70 1029.1
20260507085503 55 189 5.0 9.0 0.00 0.00 0.00 70 1029.1
20260507085004 55 192 5.0 10.0 0.00 0.00 0.00 69 1029.0
20260507084524 55 192 5.0 10.0 0.00 0.01 0.00 69 1029.0
20260507084003 55 196 5.0 13.0 0.00 0.01 0.00 68 1028.9
20260507083524 55 196 5.0 13.0 0.00 0.01 0.00 67 1028.8
20260507083004 56 195 5.0 10.0 0.00 0.01 0.00 67 1028.7
20260507082503 56 197 5.0 10.0 0.00 0.01 0.00 66 1028.7
20260507082003 56 197 5.0 10.0 0.00 0.01 0.00 66 1028.7
20260507081504 57 200 6.0 11.0 0.00 0.01 0.00 65 1028.7
20260507081003 57 198 8.0 11.0 0.00 0.01 0.00 65 1028.7
20260507080504 58 200 9.0 14.0 0.00 0.01 0.00 64 1028.6
20260507080004 58 203 9.0 17.0 0.00 0.01 0.00 64 1028.6
20260507075504 58 203 9.0 17.0 0.00 0.01 0.00 63 1028.6
20260507075004 58 204 8.0 17.0 0.00 0.01 0.00 63 1028.6
20260507074503 58 209 8.0 15.0 0.00 0.01 0.00 61 1028.6
20260507074003 59 214 7.0 17.0 0.00 0.01 0.00 60 1028.7
20260507073503 59 217 7.0 17.0 0.00 0.01 0.00 59 1028.7
20260507073004 59 224 7.0 14.0 0.00 0.01 0.00 59 1028.6
20260507072524 60 218 6.0 14.0 0.00 0.01 0.00 58 1028.7
20260507072024 60 205 6.0 11.0 0.00 0.01 0.00 58 1028.7
20260507071504 59 203 7.0 14.0 0.00 0.01 0.00 59 1028.7
20260507071003 59 202 7.0 14.0 0.00 0.01 0.00 59 1028.7
20260507070503 59 202 6.0 15.0 0.00 0.01 0.00 59 1028.6
20260507070024 59 203 5.0 15.0 0.00 0.01 0.00 60 1028.6
20260507065504 59 202 5.0 11.0 0.00 0.01 0.00 62 1028.6
20260507065024 59 196 5.0 11.0 0.00 0.01 0.00 61 1028.6
20260507064503 60 191 6.0 11.0 0.00 0.01 0.00 61 1028.6
20260507064003 60 197 6.0 14.0 0.00 0.01 0.00 61 1028.6
20260507063503 60 200 6.0 14.0 0.00 0.01 0.00 60 1028.5
20260507063024 60 202 6.0 13.0 0.00 0.01 0.00 60 1028.6
20260507062524 60 201 6.0 15.0 0.00 0.01 0.00 61 1028.5
20260507062003 60 196 6.0 15.0 0.00 0.01 0.00 61 1028.5
20260507061503 60 199 7.0 14.0 0.00 0.01 0.00 61 1028.5
20260507061003 60 210 8.0 14.0 0.00 0.01 0.00 61 1028.5
20260507060503 60 216 9.0 18.0 0.00 0.01 0.00 60 1028.5
20260507060004 60 216 8.0 18.0 0.00 0.01 0.00 60 1028.5
20260507055503 60 221 7.0 17.0 0.00 0.01 0.00 60 1028.5
20260507055004 60 218 7.0 17.0 0.00 0.01 0.00 59 1028.5
20260507054504 60 213 8.0 14.0 0.00 0.01 0.00 59 1028.6
20260507054004 60 219 9.0 15.0 0.00 0.01 0.00 60 1028.6
20260507053525 60 218 9.0 17.0 0.00 0.01 0.00 57 1028.6
20260507053005 61 205 9.0 17.0 0.00 0.01 0.00 58 1028.5
20260507052504 61 203 9.0 17.0 0.00 0.01 0.00 57 1028.5
20260507052004 61 205 8.0 18.0 0.00 0.01 0.00 57 1028.5
20260507051504 61 203 9.0 18.0 0.00 0.01 0.00 56 1028.5
20260507051025 61 206 10.0 18.0 0.00 0.02 0.00 58 1028.5
20260507050504 60 203 9.0 18.0 0.00 0.02 0.00 56 1028.5
20260507050004 60 200 9.0 18.0 0.00 0.02 0.00 56 1028.6
20260507045504 61 219 10.0 18.0 0.00 0.02 0.00 56 1028.6
20260507045004 61 235 8.0 18.0 0.00 0.02 0.00 56 1028.5
20260507044504 61 232 7.0 18.0 0.00 0.02 0.00 54 1028.5
20260507044004 62 217 7.0 13.0 0.00 0.02 0.00 55 1028.5
20260507043525 61 220 7.0 18.0 0.00 0.02 0.00 57 1028.5
20260507043004 61 226 7.0 18.0 0.00 0.02 0.00 55 1028.6
20260507042504 61 218 8.0 14.0 0.00 0.02 0.00 57 1028.7
20260507042025 61 200 9.0 18.0 0.00 0.02 0.00 57 1028.7
20260507041504 61 201 9.0 18.0 0.00 0.02 0.00 57 1028.7
20260507041004 61 208 8.0 15.0 0.00 0.02 0.00 57 1028.8
20260507040525 61 218 8.0 15.0 0.00 0.02 0.00 55 1028.8
20260507040004 61 219 7.0 17.0 0.00 0.02 0.00 54 1028.8
20260507035504 61 217 6.0 17.0 0.00 0.02 0.00 56 1028.8
20260507035004 61 218 7.0 14.0 0.00 0.02 0.00 56 1028.8
20260507034504 61 205 8.0 14.0 0.00 0.02 0.00 58 1028.9
20260507034004 61 215 8.0 14.0 0.00 0.02 0.00 57 1028.9
20260507033504 62 223 8.0 14.0 0.00 0.02 0.00 56 1028.8
20260507033004 62 226 8.0 14.0 0.00 0.02 0.00 55 1028.8
20260507032504 62 233 8.0 11.0 0.00 0.03 0.00 56 1028.8
20260507032004 61 213 8.0 15.0 0.00 0.06 0.00 58 1028.8
20260507031504 61 199 8.0 15.0 0.00 0.06 0.00 56 1028.8
20260507031004 61 202 8.0 15.0 0.00 0.06 0.00 57 1028.9
20260507030504 61 201 8.0 14.0 0.00 0.06 0.00 55 1028.9
20260507030004 61 206 9.0 20.0 0.00 0.06 0.00 56 1029.0
20260507025504 61 209 8.0 20.0 0.00 0.06 0.00 56 1029.0
20260507025004 60 209 8.0 15.0 0.00 0.06 0.00 56 1029.1
20260507024504 60 208 8.0 17.0 0.00 0.06 0.00 57 1029.1
20260507024004 60 206 8.0 17.0 0.00 0.06 0.00 57 1029.2
20260507023504 60 214 10.0 19.0 0.00 0.06 0.00 56 1029.2
20260507023004 60 215 9.0 19.0 0.00 0.06 0.00 57 1029.3
20260507022525 60 211 8.0 20.0 0.00 0.06 0.00 56 1029.2
20260507022004 61 208 8.0 20.0 0.00 0.06 0.00 55 1029.3
20260507021504 61 208 9.0 17.0 0.00 0.06 0.00 54 1029.3
20260507021004 61 215 9.0 20.0 0.00 0.06 0.00 55 1029.3
20260507020504 61 217 8.0 20.0 0.00 0.06 0.00 51 1029.3
20260507020004 62 210 8.0 15.0 0.00 0.06 0.00 51 1029.4
20260507015525 63 196 8.0 17.0 0.00 0.06 0.00 50 1029.5
20260507015004 63 183 8.0 18.0 0.00 0.06 0.00 52 1029.4
20260507014504 62 190 8.0 18.0 0.00 0.06 0.00 53 1029.5
20260507014004 61 196 8.0 18.0 0.00 0.06 0.00 55 1029.5
20260507013504 60 200 8.0 17.0 0.00 0.06 0.00 57 1029.5
20260507013004 60 206 9.0 20.0 0.00 0.06 0.00 55 1029.4
20260507012504 60 200 8.0 20.0 0.00 0.06 0.00 57 1029.4
20260507012004 59 193 8.0 14.0 0.00 0.06 0.00 60 1029.4
20260507011504 59 196 9.0 14.0 0.00 0.06 0.00 59 1029.3
20260507011004 60 204 9.0 15.0 0.00 0.06 0.00 58 1029.3
20260507010504 60 209 10.0 18.0 0.00 0.06 0.00 59 1029.3
20260507010004 60 208 10.0 20.0 0.00 0.06 0.00 60 1029.3
20260507005504 60 206 10.0 20.0 0.00 0.06 0.00 59 1029.3
20260507005004 60 204 10.0 20.0 0.00 0.06 0.00 60 1029.3
20260507004525 59 203 10.0 20.0 0.00 0.06 0.00 60 1029.2
20260507004004 59 206 9.0 19.0 0.00 0.06 0.00 62 1029.2
20260507003504 59 208 8.0 19.0 0.00 0.06 0.00 61 1029.2
20260507003004 59 207 9.0 14.0 0.00 0.06 0.00 63 1029.2
20260507002504 59 209 8.0 23.0 0.00 0.06 0.00 64 1029.1
20260507002025 58 209 8.0 23.0 0.00 0.06 0.00 63 1029.1
20260507001504 58 210 7.0 14.0 0.00 0.06 0.00 66 1029.1
20260507001004 58 213 6.0 14.0 0.00 0.06 0.00 65 1029.2
20260507000504 58 213 6.0 13.0 0.00 0.06 0.00 66 1029.2
20260507000025 58 213 6.0 13.0 0.00 0.06 0.00 68 1029.2
20260506235504 57 210 6.0 13.0 0.00 0.06 0.00 69 1029.2
20260506235004 56 203 6.0 13.0 0.00 0.06 0.00 69 1029.2
20260506234504 56 200 6.0 13.0 0.00 0.06 0.00 70 1029.1
20260506234003 56 201 6.0 13.0 0.00 0.06 0.00 69 1029.0
20260506233503 56 202 5.0 13.0 0.00 0.06 0.00 70 1029.1
20260506233004 56 204 4.0 10.0 0.00 0.06 0.00 71 1029.1
20260506232525 55 205 3.0 10.0 0.00 0.07 0.00 74 1028.9
20260506232025 54 202 3.0 10.0 0.00 0.09 0.00 76 1029.0
20260506231504 53 200 2.0 8.0 0.00 0.09 0.00 79 1029.0
20260506231004 52 204 1.0 8.0 0.00 0.09 0.00 80 1028.9
20260506230504 52 187 1.0 5.0 0.00 0.09 0.00 82 1028.8
20260506230004 51 123 1.0 6.0 0.00 0.09 0.00 83 1028.7
20260506225504 50 123 0.0 6.0 0.00 0.09 0.00 84 1028.7
20260506225004 50 80 0.0 3.0 0.00 0.09 0.00 85 1028.7
20260506224504 49 80 0.0 3.0 0.00 0.09 0.00 86 1028.6
20260506224003 49 0 0.0 0.0 0.00 0.09 0.00 86 1028.5
20260506223504 48 0 1.0 0.0 0.00 0.09 0.00 85 1028.5
20260506223004 48 83 3.0 5.0 0.00 0.09 0.00 85 1028.5
20260506222504 48 91 3.0 6.0 0.00 0.09 0.00 85 1028.4
20260506222024 48 93 2.0 6.0 0.00 0.09 0.00 85 1028.3
20260506221504 47 89 3.0 6.0 0.00 0.09 0.00 85 1028.2
20260506221003 47 82 4.0 6.0 0.00 0.09 0.00 85 1028.1
20260506220503 47 88 5.0 6.0 0.00 0.09 0.00 84 1028.1
20260506220004 47 95 6.0 8.0 0.00 0.09 0.00 84 1028.0
20260506215503 47 97 6.0 8.0 0.00 0.09 0.00 84 1027.9
20260506215004 47 97 4.0 8.0 0.00 0.09 0.00 84 1028.0
20260506214504 47 98 4.0 8.0 0.00 0.09 0.00 84 1027.7
20260506214004 47 104 4.0 6.0 0.00 0.09 0.00 83 1027.8
20260506213503 47 111 3.0 5.0 0.00 0.09 0.00 83 1027.8
20260506213004 47 114 2.0 5.0 0.00 0.09 0.00 83 1027.6
20260506212503 47 116 2.0 5.0 0.00 0.09 0.00 82 1027.6
20260506212024 48 119 1.0 4.0 0.00 0.09 0.00 81 1027.5
20260506211503 48 128 1.0 3.0 0.00 0.09 0.00 81 1027.5
20260506211004 48 133 0.0 3.0 0.00 0.09 0.00 80 1027.3
20260506210504 49 184 0.0 3.0 0.00 0.09 0.00 81 1027.3
20260506210004 49 189 0.0 3.0 0.00 0.09 0.00 80 1027.2
20260506205504 49 180 0.0 3.0 0.00 0.09 0.00 80 1027.2
20260506205003 49 183 0.0 3.0 0.00 0.09 0.00 80 1027.2
20260506204503 49 200 0.0 1.0 0.00 0.09 0.00 79 1027.1
20260506204003 50 164 1.0 3.0 0.00 0.09 0.00 79 1027.1
20260506203503 50 173 2.0 6.0 0.00 0.09 0.00 79 1027.1
20260506203025 50 171 2.0 6.0 0.00 0.09 0.00 78 1027.1
20260506202503 50 173 2.0 6.0 0.00 0.09 0.00 78 1027.0
20260506202004 50 179 3.0 9.0 0.00 0.09 0.00 78 1026.9
20260506201504 51 179 3.0 11.0 0.00 0.09 0.00 78 1026.8
20260506201024 51 180 3.0 11.0 0.00 0.09 0.00 78 1026.8
20260506200503 51 181 2.0 9.0 0.00 0.09 0.00 78 1026.8
20260506200025 50 175 1.0 9.0 0.00 0.09 0.00 79 1026.8
20260506195503 50 172 1.0 6.0 0.00 0.09 0.00 78 1026.7
20260506195003 50 178 1.0 5.0 0.00 0.09 0.00 78 1026.7
20260506194503 50 176 1.0 9.0 0.00 0.09 0.00 77 1026.5
20260506194004 50 177 1.0 9.0 0.00 0.09 0.00 77 1026.5
20260506193504 50 172 1.0 3.0 0.00 0.09 0.00 76 1026.5
20260506193004 51 185 1.0 8.0 0.00 0.09 0.00 75 1026.5
20260506192504 51 185 1.0 8.0 0.00 0.09 0.00 75 1026.5
20260506192003 51 186 1.0 3.0 0.00 0.09 0.00 73 1026.4
20260506191525 52 186 1.0 8.0 0.00 0.09 0.00 73 1026.4
20260506191004 52 187 2.0 8.0 0.00 0.09 0.00 72 1026.3
20260506190503 53 176 4.0 8.0 0.00 0.09 0.00 72 1026.3
20260506190004 53 179 5.0 10.0 0.00 0.09 0.00 72 1026.2
20260506185503 53 185 5.0 15.0 0.00 0.09 0.00 72 1026.1
20260506185003 53 184 5.0 15.0 0.00 0.09 0.00 72 1026.2
20260506184524 53 182 5.0 13.0 0.00 0.09 0.00 72 1026.1
20260506184003 53 182 4.0 11.0 0.00 0.09 0.00 71 1026.0
20260506183504 53 179 5.0 13.0 0.00 0.09 0.00 71 1025.9
20260506183004 53 182 5.0 15.0 0.00 0.09 0.00 71 1025.9
20260506182504 53 184 5.0 15.0 0.00 0.09 0.00 70 1025.9
20260506182025 53 184 4.0 13.0 0.00 0.09 0.00 70 1025.8
20260506181503 53 183 4.0 13.0 0.00 0.09 0.00 70 1025.8
20260506181004 53 180 4.0 9.0 0.00 0.09 0.00 70 1025.7
20260506180504 53 178 3.0 11.0 0.00 0.09 0.00 70 1025.8
20260506180024 53 179 3.0 14.0 0.00 0.09 0.00 70 1025.8
20260506175524 53 180 4.0 14.0 0.00 0.09 0.00 70 1025.8
20260506175004 53 181 5.0 13.0 0.00 0.09 0.00 71 1025.8
20260506174503 53 179 3.0 17.0 0.00 0.09 0.00 72 1025.9
20260506174003 52 177 1.0 17.0 0.00 0.09 0.00 72 1025.8
20260506173504 52 181 0.0 8.0 0.00 0.09 0.00 73 1025.9
20260506173003 52 0 0.0 0.0 0.00 0.09 0.00 73 1025.9
20260506172504 52 0 0.0 0.0 0.00 0.09 0.00 73 1025.8
20260506172003 52 164 1.0 5.0 0.00 0.09 0.00 73 1025.8
20260506171504 52 169 2.0 5.0 0.00 0.09 0.00 73 1025.9
20260506171004 51 170 2.0 9.0 0.00 0.09 0.00 72 1025.9
20260506170503 52 171 3.0 9.0 0.00 0.09 0.00 72 1026.0
20260506170004 52 179 3.0 9.0 0.00 0.09 0.00 72 1026.0
20260506165504 52 185 4.0 9.0 0.00 0.09 0.00 72 1026.0
20260506165004 52 182 4.0 9.0 0.00 0.09 0.00 71 1026.0
20260506164503 52 183 4.0 9.0 0.00 0.09 0.00 71 1026.0